Weather Roundup
Issued by NWS Chicago, IL

Home | Current Version | Previous Version | Graphics & Text | Print | Product List | Glossary On
Versions: 1 2 3 4 5 6 7 8 9 10 11 12 13 14 15 16 17 18 19 20 21 22 23 24 25 26 27 28 29 30 31 32 33 34 35 36 37 38 39 40 41 42 43 44 45 46 47 48 49 50
000
NZUS59 KLOT 111503
HRRLOT

CHICAGO AREA WEATHER ROUNDUP
NATIONAL WEATHER SERVICE CHICAGO/ROMEOVILLE IL
900 AM CST THU FEB 11 2016

NOTE: "FAIR" INDICATES FEW OR NO CLOUDS BELOW 12,000 FEET WITH NO
SIGNIFICANT WEATHER AND/OR OBSTRUCTIONS TO VISIBILITY.

* THESE STATIONS ARE NOT UNDER NWS QUALITY CONTROL. THEY ALSO MAY NOT
  REPORT WEATHER SUCH AS PRECIPITATION OR FOG.

ILZ005-006-012>014-019>023-111600-
NORTHEAST ILLINOIS

CITY           SKY/WX    TMP DP  RH WIND       PRES   REMARKS
OHARE          MOSUNNY   11  -1  58 N9        30.30R WCI  -2
MIDWAY         MOSUNNY   13  -2  51 N9        30.31R WCI   1
AURORA         SUNNY     12   2  64 N10       30.32R WCI  -1
LANSING*       SUNNY     13   0  54 NW7       30.31R WCI   3
WAUKEGAN       SUNNY     10  -1  61 NW9       30.29R WCI  -3
DUPAGE AIRPORT SUNNY     11  -1  58 N8        30.30R WCI  -1
WHEELING       SUNNY     10  -1  61 NW12      30.31S WCI  -5
$$

WIZ051-052-058>065-066-070>072-111600-
SOUTHEAST WISCONSIN

CITY           SKY/WX    TMP DP  RH WIND       PRES   REMARKS
MILWAUKEE      MOSUNNY    9  -2  61 NW8       30.29R WCI  -3
KENOSHA*       SUNNY      9  -1  64 NW9       30.29R WCI  -4
RACINE*        SUNNY      8  -3  61 W9        30.30R WCI  -5
BURLINGTON     SUNNY      8  -2  64 NW9       30.30R WCI  -6
$$

INZ001>003-010>013-019-020-111600-
NORTHWEST INDIANA

CITY           SKY/WX    TMP DP  RH WIND       PRES   REMARKS
GARY*          NOT AVBL
MICHIGAN CITY* NOT AVBL
RENSSELAER*    NOT AVBL
VALPARAISO     CLOUDY    14   6  70 W12       30.27R WCI   0
$$

LMZ740>746-111600-
SOUTHERN LAKE MICHIGAN

STATION/POSITION TIME  SKY/WX   TEMP WIND        PRES    VSBY
                                AIR  DIR/SP/G
                 (UTC)          (F)  (DEG/KT/KT) (MB)    (MI)
HARRISON CRIB    1400            11  310/ 15/ 18   N/A
BURNHAM HARBOR   1500            14  270/  5/ 11   N/A
CALUMET HARBOR   1400            11  300/  7/ 10 1024.9R
BURNS HARBOR     NOT AVBL
MICHIGAN CITY    1400            17  310/ 12/ 14   N/A
$$

ABBREVIATIONS USED IN REMARKS
   TC - TEMPERATURE IN CELSIUS
  WCI - WIND CHILL INDEX
   HX - HEAT INDEX
  VSB - VISIBILITY
$$



USA.gov is the U.S. government's official web portal to all federal, state and local government web resources and services.